Sitka, AK

3:16 PM AKDT on June 28, 2017 (GMT -0800)
Sitka Rocky Gutierrez

Weather History for PASI - September, 2013

Change the Weather History Date:

Friday, September 6, 2013

  Actual Average Record
Temperature  
Mean Temperature 62 °F -  
Max Temperature 66 °F 59 °F 75 °F (1986)
Min Temperature 57 °F 48 °F 40 °F (1950)
Degree Days  
Heating Degree Days 4    
Growing Degree Days 12 (Base 50)    
Moisture  
Dew Point 55 °F    
Average Humidity 83    
Maximum Humidity 93    
Minimum Humidity 65    
Precipitation  
Precipitation 0.01 in - - ()
Sea Level Pressure  
Sea Level Pressure 30.15 in    
Wind  
Wind Speed 6 mph (ESE)    
Max Wind Speed 13 mph    
Max Gust Speed 20 mph    
Visibility 10 miles    
Events Rain    
Averages and records for this station are not official NWS values.
T = Trace of Precipitation, MM = Missing Value Source: NWS Daily Summary

Daily Weather History Graph

Daily Weather History Graph

Search for Another Location

Airport or City:

Trip Planner

Search our weather history database for the weather conditions in past years. The results will help you decide how hot, cold, wet, or windy it might be!

Date:

Astronomy

Sep. 06, 2013 Rise Set
Actual Time 6:14 AM AKDT 7:43 PM AKDT
Civil Twilight 5:34 AM AKDT 8:22 PM AKDT
Nautical Twilight 4:45 AM AKDT 9:12 PM AKDT
Astronomical Twilight 3:48 AM AKDT 10:08 PM AKDT
Moon 8:01 AM AKDT (9/6) 7:39 PM AKDT (9/6)
Length of Visible Light 14h 48m
Length of Day
13h 28m
New Moon, 2% of the Moon is Illuminated
Sep 6
New Moon
Sep 12
First Quarter
Sep 19
Full
Sep 26
Last Quarter
Oct 4
New

Hourly Weather History & Observations

Time (AKDT) Temp. Dew Point Humidity Pressure Visibility Wind Dir Wind Speed Gust Speed Precip Events Conditions
12:32 AM 60.1 °F 54.0 °F 80% 30.20 in 10.0 mi East 8.1 mph - N/A   Overcast
12:43 AM 60.1 °F 55.0 °F 83% 30.20 in 10.0 mi East 8.1 mph - N/A   Overcast
12:53 AM 60.1 °F 55.0 °F 83% 30.20 in 10.0 mi ESE 5.8 mph - N/A   Overcast
1:35 AM 60.1 °F 54.0 °F 80% 30.20 in 10.0 mi East 5.8 mph - 0.00 in Rain Light Rain
1:53 AM 60.1 °F 54.0 °F 80% 30.20 in 10.0 mi ESE 5.8 mph - 0.00 in   Overcast
2:53 AM 59.0 °F 55.9 °F 90% 30.19 in 10.0 mi East 4.6 mph - 0.01 in Rain Light Rain
3:18 AM 59.0 °F 55.9 °F 90% 30.18 in 10.0 mi East 4.6 mph - 0.00 in   Overcast
3:36 AM 59.0 °F 55.9 °F 90% 30.19 in 10.0 mi ESE 4.6 mph - 0.00 in   Overcast
3:53 AM 59.0 °F 55.9 °F 90% 30.18 in 10.0 mi East 6.9 mph - 0.00 in   Overcast
4:53 AM 59.0 °F 55.9 °F 90% 30.18 in 10.0 mi Calm Calm - N/A   Overcast
5:53 AM 57.9 °F 55.9 °F 93% 30.17 in 10.0 mi Calm Calm - N/A   Overcast
6:22 AM 59.0 °F 55.9 °F 90% 30.17 in 10.0 mi Calm Calm - N/A   Overcast
6:53 AM 59.0 °F 55.9 °F 90% 30.17 in 10.0 mi Calm Calm - N/A   Overcast
7:31 AM 59.0 °F 55.9 °F 90% 30.17 in 10.0 mi ESE 4.6 mph - N/A   Overcast
7:53 AM 59.0 °F 55.9 °F 90% 30.17 in 10.0 mi East 4.6 mph - N/A   Overcast
8:53 AM 59.0 °F 55.9 °F 90% 30.17 in 10.0 mi NW 8.1 mph - N/A   Mostly Cloudy
9:53 AM 60.1 °F 55.9 °F 86% 30.17 in 10.0 mi North 3.5 mph - N/A   Overcast
10:53 AM 60.1 °F 57.0 °F 90% 30.17 in 10.0 mi NW 4.6 mph - N/A   Overcast
11:53 AM 61.0 °F 57.0 °F 87% 30.16 in 10.0 mi NW 6.9 mph - N/A   Overcast
12:29 PM 63.0 °F 55.0 °F 75% 30.16 in 10.0 mi NW 6.9 mph - N/A   Overcast
12:53 PM 63.0 °F 55.9 °F 78% 30.16 in 10.0 mi NNW 5.8 mph - N/A   Overcast
1:53 PM 64.9 °F 55.9 °F 73% 30.15 in 10.0 mi NNW 5.8 mph - N/A   Overcast
2:53 PM 64.0 °F 54.0 °F 70% 30.14 in 10.0 mi Calm Calm - N/A   Overcast
3:53 PM 66.0 °F 54.0 °F 65% 30.12 in 10.0 mi Calm Calm - N/A   Overcast
4:53 PM 64.9 °F 57.0 °F 75% 30.11 in 10.0 mi SSE 3.5 mph - N/A   Overcast
5:53 PM 63.0 °F 52.0 °F 67% 30.10 in 10.0 mi SSW 6.9 mph - N/A   Overcast
6:53 PM 62.1 °F 53.1 °F 72% 30.09 in 10.0 mi SSW 12.7 mph - N/A   Overcast
7:53 PM 61.0 °F 55.0 °F 81% 30.09 in 10.0 mi South 11.5 mph 19.6 mph N/A   Overcast
8:53 PM 61.0 °F 55.9 °F 83% 30.09 in 10.0 mi South 9.2 mph - N/A   Overcast
9:53 PM 61.0 °F 55.0 °F 81% 30.09 in 10.0 mi South 10.4 mph - N/A   Overcast
10:53 PM 62.1 °F 57.0 °F 84% 30.08 in 10.0 mi South 10.4 mph 17.3 mph N/A   Mostly Cloudy
11:53 PM 61.0 °F 57.0 °F 87% 30.08 in 10.0 mi SSW 11.5 mph - N/A   Mostly Cloudy